Home   Weather   42°29'N, 71°50'W   Past weeks
Flag for USA

Past Weather in 42°29'N, 71°50'W, USA — Yesterday and Last 2 Weeks

Now
64 °F

Sunny.


Feels Like: 64 °F
Forecast: 70 / 55 °F
Wind: 8 mph from Northwest

Location: Worcester Regional Airport

Current Time: Sep 16, 2019 at 12:53:39 pm

Latest Report: Sep 16, 2019 at 11:54 am


Visibility: 10 mi

Pressure: 30.06 "Hg

Humidity: 56%

Dew Point: 48 °F

Location of 42°29'N, 71°50'WLocation

Past Weather in 42°29'N, 71°50'W — Graph

°F

42°29'N, 71°50'W Temperature Yesterday

Maximum temperature yesterday: 73 °F (at 3:54 pm)
Minimum temperature yesterday: 60 °F (at 6:54 am)
Average temperature yesterday: 65 °F

High & Low Weather Summary for the Past Weeks

 TemperatureHumidityPressure
High80 °F (Sep 11, 3:54 pm)100% (Sep 2, 6:54 am)30.53 "Hg (Sep 2, 6:54 am)
Low48 °F (Sep 13, 11:54 pm)46% (Sep 13, 4:54 pm)29.70 "Hg (Sep 7, 4:54 am)
Average62 °F81%30.12 "Hg
* Reported Sep 1 10:54 am — Sep 16 10:54 am, 42°29'N, 71°50'W. Weather by CustomWeather, © 2019

Note: Actual official high and low records may vary slightly from our data, if they occured in-between our weather recording intervals... More about our weather records

Advertising

42°29'N, 71°50'W Weather History for the Previous 24 Hours

Scroll right to see more
 ConditionsComfort  
Time TempWeatherWind HumidityBarometerVisibility
10:54 am
Mon, Sep 16
62 °FSunny.13 mph60%30.08 "Hg10 mi
9:54 am61 °FSunny.12 mph65%30.09 "Hg10 mi
8:54 am60 °FSunny.10 mph67%30.09 "Hg10 mi
7:54 am58 °FSunny.7 mph84%30.09 "Hg10 mi
6:54 am57 °FPartly sunny.8 mph87%30.09 "Hg10 mi
5:54 am55 °FPassing clouds.6 mph96%30.07 "Hg10 mi
4:54 am56 °FClear.7 mph93%30.06 "Hg10 mi
3:54 am58 °FClear.6 mph90%30.06 "Hg10 mi
2:54 am59 °FClear.9 mph87%30.05 "Hg10 mi
1:54 am60 °FClear.10 mph86%30.05 "Hg10 mi
12:54 am61 °FPassing clouds.9 mph81%30.05 "Hg10 mi
11:54 pm
Sun, Sep 15
62 °FPassing clouds.8 mph80%30.06 "Hg10 mi
10:54 pm61 °FPassing clouds.7 mph83%30.06 "Hg10 mi
9:54 pm61 °FClear.6 mph81%30.06 "Hg10 mi
8:54 pm63 °FClear.6 mph75%30.07 "Hg10 mi
7:54 pm64 °FLight rain. Passing clouds.6 mph75%30.07 "Hg10 mi
6:54 pm66 °FSunny.5 mph68%30.07 "Hg10 mi
5:54 pm69 °FSunny.9 mph59%30.08 "Hg10 mi
4:54 pm71 °FSunny.12 mph55%30.06 "Hg10 mi
3:54 pm73 °FSunny.12 mph51%30.06 "Hg10 mi
2:54 pm72 °FSunny.12 mph55%30.08 "Hg10 mi
1:54 pm71 °FSunny.13 mph55%30.10 "Hg10 mi
12:54 pm70 °FSunny.12 mph55%30.11 "Hg10 mi
Weather by CustomWeather, © 2019

See weather overview